DW0465 Weather Reports


Display with metric or nautical units.
time (UTC)temp
F
wind
direction
speed
MPH
gust
MPH
rain 1hr
in
rain 24hr
in
rain mn
in
humidity
%
barometer
mb
20260508181557 60 169 0.0 4.0 0.00 0.36 0.02 52 1011.0
20260508180053 59 132 0.0 2.0 0.00 0.36 0.02 42 1011.0
20260508174550 59 144 0.0 1.0 0.00 0.36 0.02 47 1011.2
20260508173047 59 144 0.0 3.0 0.00 0.36 0.02 46 1011.4
20260508171551 59 130 0.0 1.0 0.00 0.36 0.02 47 1011.4
20260508170040 58 157 0.0 4.0 0.00 0.36 0.02 51 1011.4
20260508164539 58 140 0.0 1.0 0.00 0.36 0.02 51 1011.6
20260508163035 58 111 0.0 3.0 0.00 0.36 0.02 49 1011.7
20260508161532 57 124 0.0 1.0 0.00 0.36 0.02 49 1011.7
20260508160032 56 173 0.0 1.0 0.00 0.36 0.02 53 1011.9
20260508154527 54 232 0.0 0.0 0.00 0.36 0.02 63 1011.9
20260508153019 53 207 0.0 0.0 0.00 0.36 0.02 67 1012.1
20260508151515 51 215 0.0 1.0 0.00 0.36 0.02 69 1012.2
20260508150011 50 207 0.0 4.0 0.00 0.36 0.02 71 1012.5
20260508144506 49 188 0.0 1.0 0.00 0.36 0.02 74 1012.6
20260508143001 47 189 0.0 2.0 0.00 0.36 0.02 76 1012.7
20260508141557 46 174 0.0 0.0 0.00 0.36 0.02 80 1012.8
20260508140052 44 212 0.0 0.0 0.00 0.36 0.02 82 1012.9
20260508134548 43 199 0.0 1.0 0.00 0.36 0.02 83 1012.8
20260508133043 41 196 0.0 2.0 0.00 0.36 0.02 85 1012.8
20260508131540 40 195 0.0 0.0 0.00 0.36 0.02 88 1012.6
20260508130053 38 198 0.0 0.0 0.01 0.36 0.02 89 1012.6
20260508124533 38 187 0.0 0.0 0.01 0.36 0.02 89 1012.4
20260508123031 38 178 0.0 0.0 0.01 0.36 0.02 90 1012.3
20260508121530 38 202 0.0 0.0 0.01 0.36 0.02 89 1012.2
20260508120027 38 192 0.0 0.0 0.00 0.35 0.01 89 1012.2
20260508114527 38 201 0.0 0.0 0.00 0.35 0.01 90 1012.3
20260508113027 38 200 0.0 0.0 0.00 0.35 0.01 90 1012.3
20260508111526 38 205 0.0 0.0 0.00 0.35 0.01 90 1012.3
20260508110025 38 198 0.0 0.0 0.00 0.35 0.01 90 1012.1
20260508104535 38 203 0.0 0.0 0.00 0.35 0.01 90 1012.1
20260508103033 38 178 0.0 1.0 0.00 0.35 0.01 90 1011.9
20260508101522 38 173 0.0 0.0 0.00 0.35 0.01 91 1011.9
20260508100020 38 208 0.0 0.0 0.00 0.35 0.01 91 1011.9
20260508094519 39 196 0.0 0.0 0.00 0.35 0.01 90 1011.8
20260508093018 39 199 0.0 0.0 0.00 0.35 0.01 91 1011.8
20260508091517 39 201 0.0 0.0 0.00 0.35 0.01 91 1011.8
20260508090017 39 201 0.0 0.0 0.00 0.35 0.01 90 1011.8
20260508084512 40 201 0.0 0.0 0.00 0.35 0.01 90 1011.8
20260508083011 40 215 0.0 0.0 0.00 0.35 0.01 90 1011.8
20260508081508 41 215 0.0 0.0 0.00 0.35 0.01 90 1011.9
20260508080007 41 202 0.0 0.0 0.00 0.35 0.01 90 1011.8
20260508074505 41 212 0.0 0.0 0.00 0.35 0.01 90 1012.0
20260508073003 42 180 0.0 0.0 0.00 0.35 0.01 90 1011.9
20260508071501 42 189 0.0 0.0 0.00 0.35 0.01 90 1012.0
20260508070143 43 198 0.0 0.0 0.01 0.35 0.01 90 1012.0
20260508064613 43 224 0.0 0.0 0.03 0.35 0.01 90 1012.1
20260508063056 44 190 0.0 0.0 0.03 0.35 0.01 91 1012.2
20260508061600 44 196 0.0 0.0 0.03 0.35 0.01 91 1012.4
20260508060052 44 202 0.0 0.0 0.02 0.34 0.00 90 1012.6
20260508054551 44 204 0.0 0.0 0.02 0.32 0.32 90 1012.7
20260508053102 44 204 0.0 1.0 0.03 0.32 0.32 90 1012.4
20260508051552 44 221 0.0 0.0 0.06 0.32 0.32 90 1012.4
20260508050050 45 248 0.0 0.0 0.06 0.32 0.32 90 1012.7
20260508044548 45 178 0.0 0.0 0.05 0.30 0.30 90 1012.1
20260508043059 45 234 0.0 0.0 0.04 0.28 0.28 90 1012.5
20260508041547 45 234 0.0 0.0 0.01 0.26 0.26 90 1012.7
20260508040044 45 211 0.0 0.0 0.01 0.25 0.25 90 1012.1
20260508034543 45 138 0.0 0.0 0.05 0.25 0.25 90 1011.5
20260508033044 45 138 0.0 0.0 0.05 0.25 0.25 90 1011.3
20260508031550 45 65 0.0 0.0 0.05 0.25 0.25 90 1011.4
20260508030050 45 64 0.0 0.0 0.04 0.24 0.24 90 1011.2
20260508024541 45 62 0.0 0.0 0.00 0.20 0.20 89 1010.8
20260508023044 45 62 0.0 0.0 0.04 0.20 0.20 88 1010.6
20260508021538 45 35 0.0 0.0 0.04 0.20 0.20 88 1010.1
20260508020037 46 360 0.0 0.0 0.04 0.20 0.20 88 1009.7
20260508014537 47 46 0.0 5.0 0.04 0.20 0.20 82 1009.6
20260508013037 51 76 0.0 0.0 0.00 0.16 0.16 70 1008.8
20260508011536 51 84 0.0 1.0 0.00 0.16 0.16 71 1009.0
20260508010036 52 56 0.0 1.0 0.00 0.16 0.16 71 1008.8
20260508004533 53 63 0.0 1.0 0.00 0.16 0.16 71 1008.3
20260508003032 53 111 0.0 1.0 0.00 0.16 0.16 71 1007.9
20260508001533 53 94 0.0 4.0 0.00 0.16 0.16 74 1007.9
20260508000032 53 57 0.0 2.0 0.00 0.16 0.16 74 1007.7
20260507234537 54 57 0.0 0.0 0.00 0.16 0.16 69 1008.1
20260507233031 52 53 0.0 2.0 0.00 0.16 0.16 72 1008.0
20260507231530 53 123 0.0 1.0 0.00 0.16 0.16 71 1007.8
20260507230030 52 63 0.0 0.0 0.01 0.16 0.16 74 1008.1
20260507224530 51 28 0.0 0.0 0.04 0.16 0.16 75 1008.4
20260507223029 51 30 0.0 3.0 0.05 0.16 0.16 74 1008.3
20260507221530 50 90 0.0 2.0 0.05 0.16 0.16 83 1007.9
20260507220026 48 50 0.0 3.0 0.04 0.15 0.15 82 1008.6
20260507214524 51 33 0.0 2.0 0.01 0.12 0.12 74 1008.5
20260507213028 54 28 0.0 1.0 0.00 0.11 0.11 65 1008.1
20260507211522 55 54 0.0 4.0 0.00 0.11 0.11 65 1007.9
20260507210020 55 61 0.0 1.0 0.00 0.11 0.11 65 1008.1
20260507204518 55 30 0.0 1.0 0.11 0.11 0.11 64 1008.3
20260507203018 53 63 0.0 0.0 0.11 0.11 0.11 68 1008.4
20260507201516 51 113 0.0 0.0 0.11 0.11 0.11 74 1008.2
20260507200014 49 87 0.0 0.0 0.11 0.11 0.11 79 1008.8
20260507194513 55 360 0.0 4.0 0.00 0.00 0.00 56 1008.8
20260507193012 56 121 0.0 0.0 0.00 0.00 0.00 51 1008.3
20260507191510 56 108 0.0 0.0 0.00 0.00 0.00 51 1008.3
20260507190010 56 70 0.0 5.0 0.00 0.00 0.00 47 1008.4
20260507184509 58 92 0.0 6.0 0.00 0.00 0.00 46 1008.0
20260507183012 56 39 0.0 5.0 0.00 0.00 0.00 50 1008.2